Weather History for Ponca City, OK

Change the Weather History Date:

Saturday, January 25, 2014

  Actual Average Record
Temperature  
Mean Temperature 48 °F -  
Max Temperature 63 °F 53 °F 80 °F (1950)
Min Temperature 32 °F 30 °F 9 °F (1961)
Degree Days  
Heating Degree Days 18    
Moisture  
Dew Point 24 °F    
Average Humidity 46    
Maximum Humidity 65    
Minimum Humidity 28    
Precipitation  
Precipitation 0.00 in - - ()
Sea Level Pressure  
Sea Level Pressure 30.01 in    
Wind  
Wind Speed 6 mph (NW)    
Max Wind Speed 21 mph    
Max Gust Speed 24 mph    
Visibility 10 miles    
Events      
Averages and records for this station are not official NWS values.
T = Trace of Precipitation, MM = Missing Value Source: NWS Daily Summary

Daily Weather History Graph

Daily Weather History Graph

Search for Another Location

Airport:

Trip Planner

Search our weather history database for the weather conditions in past years. The results will help you decide how hot, cold, wet, or windy it might be!

Date:

Astronomy

Jan. 25, 2014 Rise Set
Actual Time 7:35 AM CST 5:46 PM CST
Civil Twilight 7:07 AM CST 6:14 PM CST
Nautical Twilight 6:36 AM CST 6:45 PM CST
Astronomical Twilight 6:05 AM CST 7:16 PM CST
Moon 2:09 AM CST (1/25) 12:47 PM CST (1/25)
Length of Visible Light 11h 06m
Length of Day
10h 11m
Waning Crescent, 34% of the Moon is Illuminated
Jan 25
Waning Crescent
Jan 30
New
Feb 6
First Quarter
Feb 14
Full
Feb 22
Last Quarter

Hourly Weather History & Observations

Time (CST) Temp. Windchill Dew Point Humidity Pressure Visibility Wind Dir Wind Speed Gust Speed Precip Events Conditions
12:53 AM 37.0 °F 31.0 °F 14.0 °F 39% 29.99 in 10.0 mi SW 8.1 mph - N/A   Clear
1:53 AM 37.0 °F 33.3 °F 15.1 °F 41% 29.98 in 10.0 mi SW 4.6 mph - N/A   Clear
2:53 AM 36.0 °F 33.3 °F 15.1 °F 43% 29.99 in 10.0 mi West 3.5 mph - N/A   Clear
3:53 AM 36.0 °F 33.3 °F 16.0 °F 44% 30.00 in 10.0 mi NW 3.5 mph - N/A   Clear
4:53 AM 34.0 °F - 17.1 °F 50% 30.01 in 10.0 mi Calm Calm - N/A   Clear
5:53 AM 34.0 °F - 19.0 °F 54% 30.03 in 10.0 mi Calm Calm - N/A   Clear
6:53 AM 32.0 °F 28.7 °F 18.0 °F 56% 30.05 in 10.0 mi NW 3.5 mph - N/A   Clear
7:53 AM 34.0 °F - 21.9 °F 61% 30.07 in 10.0 mi Calm Calm - N/A   Clear
8:53 AM 37.9 °F 35.5 °F 23.0 °F 55% 30.08 in 10.0 mi South 3.5 mph - N/A   Clear
9:53 AM 51.1 °F - 27.0 °F 39% 30.08 in 10.0 mi NW 5.8 mph - N/A   Clear
10:53 AM 59.0 °F - 30.0 °F 33% 30.09 in 10.0 mi North 12.7 mph - N/A   Clear
11:53 AM 62.1 °F - 32.0 °F 32% 30.07 in 10.0 mi North 18.4 mph - N/A   Clear
12:53 PM 62.1 °F - 30.9 °F 31% 30.04 in 10.0 mi North 15.0 mph - N/A   Clear
1:53 PM 63.0 °F - 28.9 °F 28% 30.02 in 10.0 mi North 20.7 mph 24.2 mph N/A   Clear
2:53 PM 63.0 °F - 28.9 °F 28% 30.01 in 10.0 mi NNW 12.7 mph 20.7 mph N/A   Clear
3:53 PM 62.1 °F - 30.0 °F 30% 30.01 in 10.0 mi North 16.1 mph - N/A   Clear
4:53 PM 59.0 °F - 28.9 °F 32% 30.01 in 10.0 mi North 10.4 mph - N/A   Clear
5:53 PM 50.0 °F - 28.0 °F 43% 30.01 in 10.0 mi NE 6.9 mph - N/A   Clear
6:53 PM 45.0 °F - 28.0 °F 52% 30.01 in 10.0 mi Calm Calm - N/A   Clear
7:53 PM 36.0 °F - 24.1 °F 62% 30.00 in 10.0 mi Calm Calm - N/A   Clear
8:53 PM 33.1 °F - 21.9 °F 64% 29.98 in 10.0 mi Calm Calm - N/A   Clear
9:53 PM 39.9 °F 37.8 °F 27.0 °F 60% 29.95 in 10.0 mi South 3.5 mph - N/A   Clear
10:53 PM 39.0 °F - 27.0 °F 62% 29.92 in 10.0 mi Calm Calm - N/A   Clear
11:53 PM 37.0 °F 34.5 °F 26.1 °F 65% 29.89 in 10.0 mi South 3.5 mph - N/A   Clear